Flag for United Arab Emirates Weather past 2 weeks in Dubai, Dubai, United Arab Emirates

Now
86 °F

Clear.


Feels Like: 87 °F
Forecast: 81 / 94 °F
Wind: 3 mph from Southwest

Location: Dubai International Airport


UV Index: 7 (High)

Visibility: 10 mi


Pressure: 29.83 "Hg

Humidity: 46%

Dew point: 63 °F

Location of DubaiLocation

Historic Weather in Dubai

°F

Dubai temperature yesterday

Maximum temperature yesterday: 100 °F (at 11:00 AM)
Minimum temperature yesterday: 81 °F (at 3:00 AM)
Average temperature yesterday: 89 °F

Past Weeks' High & Low Weather Summary

 TemperatureHumidityPressure
High100 °F (Apr 3, 1:00 PM)100% (Apr 7, 6:00 AM)30.07 "Hg (Apr 7, 6:00 AM)
Low66 °F (Apr 7, 6:00 AM)6% (Apr 11, 12:00 PM)29.65 "Hg (Apr 2, 6:00 PM)
Average83 °F46%29.88 "Hg
* Reported Apr 1 10:00 PM — Apr 16 10:00 PM, Dubai, Weather by CustomWeather, © 2014

Note: Actual official high and low records may vary slightly from our data, if they occured in-between our weather recording intervals... More about our weather records

Advertising

Historic Weather Conditions — Data for Previous 24 hours

 ConditionsComfort  
Time TempWeatherWind HumidityBarometerVisibility
10:00 PM
Apr 16
86 °FClear.3 mph46%29.83 "Hg10 mi
9:00 PM88 °FClear.3 mph43%29.80 "Hg10 mi
8:00 PM86 °FPassing clouds.3 mph46%29.80 "HgN/A
7:00 PM86 °FClear.6 mph46%29.80 "Hg10 mi
6:00 PM88 °FSunny.12 mph43%29.80 "Hg10 mi
5:00 PM90 °FPassing clouds.12 mph33%29.80 "HgN/A
4:00 PM91 °FSunny.18 mph32%29.80 "Hg10 mi
3:00 PM91 °FSunny.15 mph41%29.80 "Hg10 mi
2:00 PM97 °FSunny.16 mph22%29.83 "Hg10 mi
1:00 PM97 °FSunny.9 mph17%29.83 "Hg10 mi
12:00 PM95 °FClear.13 mph23%29.86 "Hg6 mi
11:00 AM99 °FSunny.5 mph18%29.86 "Hg10 mi
10:00 AM99 °FPassing clouds.10 mph13%29.86 "HgN/A
9:00 AM95 °FClear.3 mph20%29.86 "Hg6 mi
8:00 AM88 °FClear.3 mph35%29.86 "Hg6 mi
7:00 AM82 °FClear.2 mph48%29.83 "Hg6 mi
6:00 AM81 °FClear.2 mph54%29.83 "Hg6 mi
5:00 AM81 °FPassing clouds.3 mph54%29.80 "HgN/A
3:00 AM82 °FClear.1 mph51%29.83 "Hg10 mi
2:00 AM81 °FPassing clouds.3 mph54%29.83 "HgN/A
1:00 AM82 °FClear.5 mph58%29.86 "Hg10 mi
12:00 AM82 °FPassing clouds.6 mph62%29.86 "HgN/A
11:00 PM
Apr 15
86 °FClear.6 mph49%29.89 "Hg10 mi
Weather by CustomWeather, © 2014

See weather overview